{"data":{"norad_id":65569,"intl_designator":"2025-203E","name":"PRAETORIAN SDA_606","alt_names":[],"object_type":"PAYLOAD","status":"ACTIVE","operator":null,"country":"US","launch_date":"2025-09-10","launch_site_code":"AFWTR","launch_vehicle":null,"mission":null,"orbit_class":"UNKNOWN","rcs_meters":null,"size_class":null,"mass_kg":null,"dimensions":null,"purposes":["military"],"wikipedia_slug":null,"has_3d_model":false,"image_url":null,"decayed_at":null,"tle_current":{"epoch":"2026-09-20T01:36:12.199104Z","epoch_age_seconds":51802,"freshness":"FRESH","line1":"1 65569U 25203E   26263.06680786  .00000055  00000+0  39813-4 0  9990","line2":"2 65569  81.3020 283.2894 0005070 303.0557  57.0111 13.83211527 51800","mean_motion":13.83211527,"eccentricity":0.000507,"inclination_deg":81.302,"raan_deg":283.2894,"arg_perigee_deg":303.0557,"mean_anomaly_deg":57.0111,"bstar":3.9813e-5,"rev_number":5180,"period_min":104.10555232454,"perigee_km":948.80125778091,"apogee_km":956.23454184932,"semimajor_km":7330.6548998151,"source":"CELESTRAK","updated_at":"2026-09-20T09:00:47.714895Z"}}}